Regional Weather Roundup
Issued by NWS Mt. Holly, NJ

Home | Current Version | Previous Version | Text Only | Print | Product List | Glossary On
Versions: 1 2 3 4 5 6 7 8 9 10 11 12 13 14 15 16 17 18 19 20 21 22 23 24 25 26 27 28 29 30 31 32 33 34 35 36 37 38 39 40 41 42 43 44 45 46 47 48 49 50
000
ASUS41 KPHI 261212
RWRPHI

REGIONAL WEATHER ROUNDUP
NATIONAL WEATHER SERVICE MOUNT HOLLY NJ
800 AM EDT WED JUL 26 2017

NOTE:  "FAIR" INDICATES FEW OR NO CLOUDS BELOW 12,000 FEET WITH NO
SIGNIFICANT WEATHER AND/OR OBSTRUCTIONS TO VISIBILITY.

 * = STATION DOES NOT REPORT PRECIPITATION (E.G. RAIN, SNOW, ETC.)
        OR FOG.

NJZ015>026-261300-
SOUTHERN NEW JERSEY

CITY           SKY/WX    TMP DP  RH WIND       PRES   REMARKS
POMONA         CLOUDY    69  64  84 NE8       30.22S
6HR MIN TEMP:  67; 6HR MAX TEMP:  69;

WILDWOOD*      CLOUDY    71  63  75 NE8       30.22R
MILLVILLE      CLOUDY    68  65  90 NE7       30.22S
WRIGHTSTOWN    PTSUNNY   65  62  89 NE5       30.22R
MOUNT HOLLY    CLOUDY    66  65  96 CALM      30.24R
TRENTON        CLOUDY    67  63  87 N3        30.24R
6HR MIN TEMP:  65; 6HR MAX TEMP:  67;


$$
NJZ001>014-261300-
NORTHERN NEW JERSEY

CITY           SKY/WX    TMP DP  RH WIND       PRES   REMARKS
SUSSEX         MOSUNNY   65  61  87 VRB3      30.27R
ANDOVER*         N/A     64  58  80 CALM      30.27R
MORRISTOWN     MOSUNNY   64  59  82 NE3       30.26R
NEWARK         PTSUNNY   69  57  65 N10       30.24R
TETERBORO      SUNNY     68  58  70 NE5       30.24R
CALDWELL       MOSUNNY   66  59  78 E6        30.26R
SOMERVILLE     CLOUDY    67  61  81 NW3       30.23S
ALLAIRE*       CLOUDY    67  59  75 NE6       30.25R
TOMS RIVER*    CLOUDY    67  63  87 MISG      30.25R

$$
PAZ043-044-047-054-055-060>062-066>071-261300-
EASTERN PENNSYLVANIA

CITY           SKY/WX    TMP DP  RH WIND       PRES   REMARKS
PHILADELPHIA   CLOUDY    69  62  78 NE8       30.24R
6HR MIN TEMP:  67; 6HR MAX TEMP:  69;

NORTH PHILA    CLOUDY    69  62  78 E7        30.26R
BLUE BELL*     CLOUDY    64  61  88 E6        30.26R
DOYLESTOWN     CLOUDY    65  61  87 VRB3      30.25R
QUAKERTOWN*    CLOUDY    64  61  88 NE3       30.27R
PERKASIE*      CLOUDY    64  63  94 E7        30.27R
POTTSTOWN      CLOUDY    65  63  93 NE5       30.27R
LANCASTER      CLOUDY    68  65  90 SE3       30.26R FOG
COATESVILLE    CLOUDY    66  63  88 E9        30.27R
READING        CLOUDY    66  64  93 NE3       30.24R
6HR MIN TEMP:  65; 6HR MAX TEMP:  67; 6HR PCP:  0.11;

ALLENTOWN      CLOUDY    65  61  87 NE6       30.26R
6HR MIN TEMP:  64; 6HR MAX TEMP:  65; 6HR PCP:  0.20;

MOUNT POCONO   CLOUDY    57  57 100 E5        30.29R
6HR MIN TEMP:  56; 6HR MAX TEMP:  58;

HAZLETON         N/A     61  59  94 CALM      30.31R FOG
LEHIGHTON      CLOUDY    63  61  94 CALM      30.28R
WILKES BARRE   CLOUDY    63  60  90 CALM      30.28R

$$
DEZALL-MDZ008-012-015-019-020-261300-
DELAWARE AND EASTERN MARYLAND

CITY           SKY/WX    TMP DP  RH WIND       PRES   REMARKS
WILMINGTON     SUNNY     70  63  78 E9        30.24R
6HR MIN TEMP:  68; 6HR MAX TEMP:  70;

DOVER          CLOUDY    68  68 100 W3        30.21R
GEORGETOWN     PTSUNNY   72  65  78 E5        30.22R
6HR MIN TEMP:  68; 6HR MAX TEMP:  72;

EASTON         PTSUNNY   72  66  83 E3        30.25R
ABERDEEN       CLOUDY    71  65  82 E6        30.23R
PATUXENT       PTSUNNY   74  67  78 E3        30.19R
OCEAN CITY     PTSUNNY   73  68  84 E5        30.19S
WALLOPS ISLAND MOSUNNY   74  69  85 CALM      30.19S
CAMBRIDGE      SUNNY     70  66  88 E5        30.20S
SALISBURY      PTSUNNY   70  68  93 NE5       30.20R

$$
PAZ001-021-NYZ056-072-MDZ011-DCZ001-261300-
OTHER NEARBY LOCATIONS

CITY           SKY/WX    TMP DP  RH WIND       PRES   REMARKS
HARRISBURG     PTSUNNY   67  62  84 CALM      30.24R
STATE COLLEGE  FOG       55  55 100 CALM      30.27R VSB 1/8
WILLIAMSPORT   CLOUDY    59  58  96 CALM      30.26R
BINGHAMTON     CLOUDY    59  58  96 SW5       30.28R
NEW YORK CITY  SUNNY     66  57  72 VRB3      30.27R
BALTIMORE      PTSUNNY   68  67  96 NW5       30.22R
WASHINGTON DC  MOSUNNY   72  66  81 N7        30.22R

$$



USA.gov is the U.S. government's official web portal to all federal, state and local government web resources and services.